Waterbury, CT

4:44 AM EDT on August 24, 2016 (GMT -0400)
Waterbury-Oxford

Weather History for KOXC - October, 2013

Change the Weather History Date:

Sunday, October 6, 2013

  Actual Average Record
Temperature  
Mean Temperature 60 °F -  
Max Temperature 62 °F 60 °F 84 °F (2007)
Min Temperature 57 °F 42 °F 30 °F (2003)
Degree Days  
Heating Degree Days 6    
Growing Degree Days 10 (Base 50)    
Moisture  
Dew Point 57 °F    
Average Humidity 87    
Maximum Humidity 94    
Minimum Humidity 82    
Precipitation  
Precipitation 0.00 in - - ()
Sea Level Pressure  
Sea Level Pressure 30.12 in    
Wind  
Wind Speed 6 mph (SE)    
Max Wind Speed 9 mph    
Max Gust Speed -    
Visibility 2 miles    
Events Rain    
Averages and records for this station are not official NWS values.
T = Trace of Precipitation, MM = Missing Value Source: NWS Daily Summary

Daily Weather History Graph

Daily Weather History Graph

Search for Another Location

Airport or City:

Trip Planner

Search our weather history database for the weather conditions in past years. The results will help you decide how hot, cold, wet, or windy it might be!

Date:

Astronomy

Oct. 06, 2013 Rise Set
Actual Time 6:54 AM EDT 6:25 PM EDT
Civil Twilight 6:27 AM EDT 6:53 PM EDT
Nautical Twilight 5:55 AM EDT 7:25 PM EDT
Astronomical Twilight 5:22 AM EDT 7:57 PM EDT
Moon 8:37 AM EDT (10/6) 7:21 PM EDT (10/6)
Length of Visible Light 12h 26m
Length of Day
11h 30m
Waxing Crescent, 3% of the Moon is Illuminated
Oct 6
Waxing Crescent
Oct 11
First Quarter
Oct 18
Full
Oct 26
Last Quarter
Nov 3
New

Hourly Weather History & Observations

Time (EDT) Temp. Dew Point Humidity Pressure Visibility Wind Dir Wind Speed Gust Speed Precip Events Conditions
12:15 AM 62.6 °F 60.8 °F 94% 30.11 in 1.2 mi South 6.9 mph - N/A   Overcast
12:35 AM 62.6 °F 60.8 °F 94% 30.10 in 1.8 mi SSE 6.9 mph - N/A   Overcast
12:55 AM 62.6 °F 59.0 °F 88% 30.11 in 3.0 mi SSE 5.8 mph - N/A   Overcast
1:15 AM 62.6 °F 59.0 °F 88% 30.12 in 3.0 mi SSE 4.6 mph - N/A   Overcast
1:35 AM 62.6 °F 59.0 °F 88% 30.12 in 2.5 mi South 3.5 mph - N/A   Overcast
1:55 AM 62.6 °F 59.0 °F 88% 30.12 in 3.0 mi SE 4.6 mph - N/A   Overcast
2:15 AM 62.6 °F 59.0 °F 88% 30.11 in 2.5 mi SSE 5.8 mph - N/A   Overcast
2:35 AM 62.6 °F 59.0 °F 88% 30.11 in 3.0 mi SSE 5.8 mph - N/A   Overcast
2:55 AM 62.6 °F 59.0 °F 88% 30.10 in 4.0 mi SSE 6.9 mph - N/A   Overcast
3:15 AM 62.6 °F 59.0 °F 88% 30.10 in 3.0 mi SSE 5.8 mph - N/A   Overcast
3:35 AM 62.6 °F 59.0 °F 88% 30.09 in 4.0 mi SE 6.9 mph - N/A   Overcast
3:55 AM 62.6 °F 59.0 °F 88% 30.10 in 3.0 mi South 4.6 mph - N/A   Overcast
4:15 AM 62.6 °F 59.0 °F 88% 30.10 in 3.0 mi SSE 6.9 mph - N/A   Overcast
4:35 AM 62.6 °F 59.0 °F 88% 30.10 in 5.0 mi SSE 5.8 mph - N/A   Overcast
4:55 AM 62.6 °F 59.0 °F 88% 30.10 in 3.0 mi South 5.8 mph - N/A   Overcast
5:15 AM 62.6 °F 59.0 °F 88% 30.10 in 3.0 mi SSE 5.8 mph - N/A   Overcast
5:35 AM 62.6 °F 59.0 °F 88% 30.10 in 4.0 mi SSE 5.8 mph - N/A   Overcast
5:45 AM 62.6 °F 59.0 °F 88% 30.10 in 2.0 mi South 8.1 mph - N/A Rain Light Rain
6:45 AM 62.6 °F 59.0 °F 88% 30.11 in 1.5 mi SSE 6.9 mph - N/A   Overcast
7:45 AM 62.6 °F 57.2 °F 82% 30.12 in 2.0 mi SE 9.2 mph - N/A   Overcast
8:45 AM 60.8 °F 57.2 °F 88% 30.14 in 2.0 mi ESE 9.2 mph - N/A   Overcast
8:57 AM 60.8 °F 57.2 °F 88% 30.14 in 2.0 mi SE 8.1 mph - N/A Rain Rain
9:45 AM 60.8 °F 55.4 °F 82% 30.16 in 2.0 mi SE 8.1 mph - N/A Rain Rain
10:55 AM 60.8 °F 55.4 °F 82% 30.17 in 3.0 mi ESE 6.9 mph - N/A   Overcast
11:45 AM 60.8 °F 55.4 °F 82% 30.17 in 2.0 mi ESE 6.9 mph - N/A   Overcast
12:05 PM 57.2 °F 53.6 °F 88% 30.17 in 1.0 mi East 4.6 mph - N/A   Mist
12:55 PM 59.0 °F 53.6 °F 82% 30.16 in 1.0 mi ESE 6.9 mph - N/A   Overcast
1:45 PM 59.0 °F 53.6 °F 82% 30.15 in 2.0 mi East 6.9 mph - N/A   Overcast
2:45 PM 57.2 °F 53.6 °F 88% 30.14 in 0.8 mi East 6.9 mph - N/A   Overcast
3:45 PM 59.0 °F 55.4 °F 88% 30.14 in 1.0 mi East 6.9 mph - N/A   Mist
4:45 PM 59.0 °F 55.4 °F 88% 30.12 in 1.0 mi East 4.6 mph - N/A   Mist
5:45 PM 59.0 °F 55.4 °F 88% 30.13 in 1.0 mi ESE 5.8 mph - N/A   Mist
6:45 PM 57.2 °F 53.6 °F 88% 30.13 in 2.0 mi East 5.8 mph - N/A   Mist
7:45 PM 59.0 °F 55.4 °F 88% 30.13 in 3.0 mi ESE 5.8 mph - N/A   Mist
8:55 PM 59.0 °F 55.4 °F 88% 30.13 in 2.5 mi East 5.8 mph - N/A   Overcast
9:15 PM 59.0 °F 55.4 °F 88% 30.13 in 3.0 mi ESE 8.1 mph - N/A   Overcast
9:35 PM 59.0 °F 55.4 °F 88% 30.12 in 2.5 mi ESE 5.8 mph - N/A   Overcast
9:55 PM 59.0 °F 55.4 °F 88% 30.12 in 1.0 mi ESE 4.6 mph - N/A   Overcast
10:15 PM 59.0 °F 55.4 °F 88% 30.11 in 0.5 mi ESE 5.8 mph - N/A   Overcast
10:35 PM 59.0 °F 55.4 °F 88% 30.11 in 0.5 mi ESE 5.8 mph - N/A   Overcast
10:55 PM 60.8 °F 55.4 °F 82% 30.11 in 0.5 mi East 5.8 mph - N/A   Overcast
11:15 PM 60.8 °F 55.4 °F 82% 30.11 in 0.2 mi ESE 6.9 mph - N/A   Overcast
11:35 PM 60.8 °F 57.2 °F 88% 30.10 in 0.2 mi ESE 4.6 mph - N/A   Overcast
11:55 PM 60.8 °F 57.2 °F 88% 30.09 in 0.2 mi ESE 4.6 mph - N/A   Overcast